Home > Weather > Kowloon > Past weeks

Flag for Hong Kong Weather for the Past 2 Weeks in Kowloon, Hong Kong

Now
54 °F

Passing clouds.


Feels Like: 50 °F
Forecast: 53 / 63 °F
Wind: 12 mph from Northeast

Location: National Airport

Current Time: Feb 7, 2016 at 9:49:00 AM

Latest Report: Feb 7, 2016 at 9:00 AM


Visibility: N/A

Pressure: 30.36 "Hg

Humidity: 16%

Dew point: 9 °F

Location of KowloonLocation

Historic Weather in Kowloon — Graph

°F

Kowloon Temperature Yesterday

Maximum temperature yesterday: 64 °F (at 2:30 PM)
Minimum temperature yesterday: 52 °F (at 6:30 AM)
Average temperature yesterday: 58 °F

High & Low Weather Summary for the Past Weeks

 TemperatureHumidityPressure
High68 °F (Jan 29, 1:00 PM)100% (Jan 28, 10:00 AM)30.66 "Hg (Jan 28, 10:00 AM)
Low37 °F (Jan 24, 6:30 AM)18% (Feb 6, 2:30 PM)29.98 "Hg (Jan 28, 2:30 PM)
Average54 °F67%30.24 "Hg
* Reported Jan 23 8:00 AM — Feb 7 8:00 AM, Kowloon, Weather by CustomWeather, © 2016

Note: Actual official high and low records may vary slightly from our data, if they occured in-between our weather recording intervals... More about our weather records

Advertising

Kowloon Weather History for the Previous 24 Hours

 ConditionsComfort  
Time TempWeatherWind HumidityBarometerVisibility
8:00 AM
Sun, Feb 7
52 °FPassing clouds.14 mph20%30.36 "HgN/A
7:00 AM52 °FSunny.17 mph20%30.33 "Hg10 mi
6:30 AM52 °FClear.18 mph19%30.33 "Hg10 mi
6:00 AM52 °FClear.17 mph20%30.30 "Hg10 mi
5:00 AM52 °FPassing clouds.12 mph20%30.30 "HgN/A
4:30 AM52 °FClear.10 mph20%30.30 "Hg10 mi
4:00 AM52 °FPassing clouds.9 mph20%30.30 "HgN/A
3:30 AM52 °FClear.10 mph20%30.30 "Hg10 mi
3:00 AM52 °FClear.12 mph22%30.33 "Hg10 mi
2:30 AM54 °FClear.12 mph22%30.33 "Hg10 mi
2:00 AM54 °FClear.12 mph22%30.33 "Hg10 mi
1:30 AM54 °FClear.9 mph24%30.33 "Hg10 mi
1:00 AM54 °FClear.10 mph26%30.33 "Hg10 mi
12:30 AM55 °FPassing clouds.8 mph24%30.33 "HgN/A
12:00 AM55 °FClear.10 mph23%30.33 "Hg10 mi
11:30 PM
Sat, Feb 6
55 °FClear.14 mph24%30.33 "Hg10 mi
11:00 PM55 °FClear.14 mph24%30.33 "Hg10 mi
10:30 PM57 °FClear.15 mph23%30.33 "Hg10 mi
10:00 PM57 °FClear.15 mph27%30.33 "Hg10 mi
9:30 PM59 °FClear.14 mph25%30.33 "Hg10 mi
9:00 PM59 °FClear.13 mph25%30.30 "Hg10 mi
8:30 PM61 °FClear.15 mph23%30.30 "Hg10 mi
8:00 PM61 °FClear.21 mph22%30.30 "Hg10 mi
7:30 PM61 °FClear.15 mph22%30.27 "Hg10 mi
7:00 PM63 °FClear.17 mph20%30.27 "Hg10 mi
6:30 PM63 °FClear.17 mph19%30.24 "Hg10 mi
6:00 PM63 °FSunny.20 mph20%30.24 "Hg10 mi
5:30 PM64 °FSunny.20 mph21%30.21 "Hg10 mi
5:00 PM64 °FSunny.20 mph19%30.21 "Hg10 mi
4:30 PM64 °FSunny.16 mph18%30.21 "Hg10 mi
4:00 PM64 °FSunny.17 mph19%30.21 "Hg10 mi
3:30 PM64 °FSunny.17 mph22%30.21 "Hg10 mi
3:00 PM63 °FSunny.15 mph20%30.21 "Hg10 mi
2:30 PM64 °FSunny.15 mph18%30.24 "Hg10 mi
2:00 PM63 °FSunny.17 mph22%30.24 "Hg10 mi
1:30 PM61 °FSunny.22 mph22%30.24 "Hg10 mi
1:00 PM61 °FSunny.23 mph22%30.27 "Hg10 mi
12:00 PM61 °FSunny.30 mph19%30.30 "Hg10 mi
11:30 AM59 °FSunny.23 mph20%30.30 "Hg10 mi
11:00 AM59 °FSunny.24 mph21%30.33 "Hg10 mi
10:00 AM57 °FPassing clouds.21 mph25%30.33 "HgN/A
9:00 AM55 °FSunny.13 mph28%30.30 "Hg10 mi
Weather by CustomWeather, © 2016

See weather overviewHow to use our weather pages